Location: Newark
(60.6561°N, 46.5772°E)
Time: 00:51:58
(UTC+00:00)

Explorer 7 - All Passes

Search period start: 14 October 2019 00:00
Search period end: 24 October 2019 00:00
Orbit: 485 x 680 km, 50.3° (Epoch: 13 October)

Date Brightness Start Highest point End Pass type
(mag) Time Alt. Az. Time Alt. Az. Time Alt. Az.
14 Oct - 11:22:03 10° S 11:23:28 12° SSE 11:24:54 10° SE daylight
14 Oct - 13:00:07 10° SW 13:02:52 19° S 13:05:44 10° SE daylight
14 Oct - 14:39:52 10° SW 14:42:24 16° SSW 14:45:01 10° SSE visible
15 Oct - 11:26:05 10° SSW 11:28:08 14° SSE 11:30:14 10° SE daylight
15 Oct - 13:04:50 10° SW 13:07:37 19° S 13:10:30 10° SE daylight
15 Oct - 14:44:59 10° SW 14:47:07 14° SSW 14:49:18 10° SSE visible
16 Oct - 11:30:27 10° SSW 11:32:51 16° SSE 11:35:18 10° SE daylight
16 Oct - 13:09:38 10° SW 13:12:21 18° S 13:15:10 10° SE daylight
16 Oct - 14:50:25 10° SW 14:51:48 11° SSW 14:53:11 10° S visible
17 Oct - 11:35:00 10° SSW 11:37:34 17° S 11:40:13 10° SE daylight
17 Oct - 13:14:32 10° SW 13:17:06 17° S 13:19:44 10° SSE daylight
18 Oct - 10:01:21 10° S 10:02:53 12° SSE 10:04:25 10° SE daylight
18 Oct - 11:39:38 10° SW 11:42:18 18° S 11:45:02 10° SE daylight
18 Oct - 13:19:33 10° SW 13:21:49 15° SSW 13:24:08 10° SSE daylight
19 Oct - 10:05:29 10° SSW 10:07:34 14° SSE 10:09:40 10° SE daylight
19 Oct - 11:44:23 10° SW 11:47:03 18° S 11:49:46 10° SE daylight
19 Oct - 13:24:47 10° SW 13:26:31 13° SSW 13:28:17 10° S daylight
20 Oct - 10:09:54 10° SSW 10:12:16 16° SSE 10:14:42 10° SE daylight
20 Oct - 11:49:14 10° SW 11:51:47 17° S 11:54:24 10° SE daylight
20 Oct - 13:30:56 10° SSW 13:31:11 10° SSW 13:31:25 10° SSW daylight
21 Oct - 08:37:07 10° SSE 08:37:38 10° SSE 08:38:08 10° SE daylight
21 Oct - 10:14:28 10° SW 10:17:00 17° S 10:19:35 10° SE daylight
21 Oct - 11:54:10 10° SW 11:56:31 16° SSW 11:58:54 10° SSE daylight
22 Oct - 08:40:38 10° S 08:42:17 13° SSE 08:43:58 10° SE daylight
22 Oct - 10:19:09 10° SW 10:21:45 18° S 10:24:22 10° SE daylight
22 Oct - 11:59:15 10° SW 12:01:13 14° SSW 12:03:14 10° SSE daylight
23 Oct - 08:44:51 10° SSW 08:46:59 15° SSE 08:49:09 10° SE daylight
23 Oct - 10:23:55 10° SW 10:26:29 17° S 10:29:04 10° SE daylight
23 Oct - 12:04:40 10° SW 12:05:55 11° SSW 12:07:09 10° S daylight
